Location: Austin
(30.3000°N, 97.7500°W)
Time: 22:55:33
(UTC-05:00)

Meteor 1-12 Rocket - Pass Details

Date: 08 April 2026
Orbit: 854 x 924 km, 81.2° (Epoch: 20 April)

Event Time Altitude Azimuth Distance (km) Brightness Sun altitude
Exits shadow 21:58:51 32° 190° (S) 1,503 5.3 -26.3°
Maximum altitude 22:01:45 85° 277° (W) 920 4.3 -26.9°
Drops below altitude 10° 22:07:46 10° 6° (N) 2,620 7.0 -28.0°
Sets 22:10:16 0° 7° (N) 3,569 7.7 -28.5°
